AirNav   Pilot Hours Calculator
 
 1155 users online  

OR81 Olinger Airpark
Hillsboro, Oregon, USA

GOING TO HILLSBORO?


FAA INFORMATION EFFECTIVE 15 JULY 2021

Location

FAA Identifier: OR81
Lat/Long: 45-33-11.9200N 123-01-16.0400W
45-33.198667N 123-01.267333W
45.5533111,-123.0211222
(estimated)
Elevation: 185 ft. / 56 m (estimated)
Variation: 19E (1985)
From city: 3 miles NW of HILLSBORO, OR
Time zone: UTC -7 (UTC -8 during Standard Time)
Zip code: 97124

Airport Operations

Airport use: Private use. Permission required prior to landing
Activation date: 12/1964
Control tower: no
ARTCC: SEATTLE CENTER
FSS: MC MINNVILLE FLIGHT SERVICE STATION
Attendance: UNATNDD
Wind indicator: yes
Segmented circle: no
Lights: SS-SR

Airport Communications

WX ASOS at HIO (3 nm E): PHONE 503-615-4314
WX ASOS at SPB (15 nm NE): 135.875 (503-543-6401)
WX ASOS at VUO (16 nm E): 135.125 (360-696-1280)
WX ASOS at PDX (18 nm E): PHONE (503) 493-7687

Nearby radio navigation aids

VOR radial/distance  VOR name  Freq  Var
UBGr330/12.1NEWBERG VOR/DME117.4021E
BTGr216/21.5BATTLE GROUND VORTAC116.6021E

 
NDB name  Hdg/Dist  Freq  Var  ID
BANKS151/4.735616EPND .--. -. -..

Airport Services

Airframe service: NONE
Powerplant service: NONE

Runway Information

Runway 7/25

Dimensions: 2000 x 80 ft. / 610 x 24 m
Surface: turf/gravel
Runway edge lights: low intensity
RUNWAY 7  RUNWAY 25
Traffic pattern: leftleft
Obstructions: none100 ft. trees, 2000 ft. from runway

Airport Ownership and Management from official FAA records

Ownership: Privately-owned
Owner: OLINGER AIRPARK ASSOCIATION
33400 N.W. BAGLEY RD, OLINGER AIRPARK
HILLSBORO, OR 97124
Phone 503-640-5186
Manager: JOHN BOUTEA
33400 N.W. BAGLEY RD, OLINGER AIRPARK
HILLSBORO, OR 97124
Phone 503-640-5186

Airport Operational Statistics

Aircraft based on the field: 13
Single engine airplanes: 13
    

Additional Remarks

FOR CD CTC PORTLAND APCH AT 503-493-7545.

Instrument Procedures

There are no published instrument procedures at OR81.

Some nearby airports with instrument procedures:

KHIO - Portland-Hillsboro Airport (3 nm E)
KSPB - Scappoose Airport (15 nm NE)
KVUO - Pearson Field Airport (16 nm E)
KPDX - Portland International Airport (18 nm E)
KUAO - Aurora State Airport (21 nm SE)
 
Loc | Ops | Rwys | IFR | FBO | Links
Com | Nav | Svcs | Stats | Notes
Area around OR81 (Olinger Airpark)
 
Road maps at: MapQuest Bing Google
 
Aerial photo
WARNING: Photo may not be current or correct
Aerial photo of OR81 (Olinger Airpark)
Photo by John Bouyea
Photo taken 28-Jan-2009

Do you have a better or more recent aerial photo of Olinger Airpark that you would like to share? If so, please send us your photo.

 
Sectional chart

 
Airport distance calculator
Flying to Olinger Airpark? Find the distance to fly.

From to OR81

Sunrise and sunset
Times for 01-Aug-2021
 Local
(UTC-7)
 Zulu
(UTC)
Morning civil twilight05:2312:23
Sunrise05:5712:57
Sunset20:4003:40
Evening civil twilight21:1404:14

Current date and time
Zulu (UTC)  01-Aug-2021 18:06:10
Local (UTC-7)  01-Aug-2021 11:06:10
 
METAR
KHIO 
3nm E 
011753Z 00000KT 10SM CLR 23/14 A3009 RMK AO2 SLP185 T02280144 10228 20144 58001
KSPB 
14nm NE 
011753Z AUTO VRB05KT 10SM CLR 23/14 A3008 RMK AO2 SLP187 T02280139 10233 20167 58000
KVUO 
16nm E 
011753Z AUTO VRB05KT 10SM CLR 21/13 A3009 RMK AO2 SLP189 T02110128 10217 20167 58001
KPDX 
18nm E 
011753Z 30005KT 10SM SCT200 22/14 A3009 RMK AO2 SLP189 T02170139 10222 20172 58000
TAF
KHIO 
3nm E 
011720Z 0118/0218 VRB04KT P6SM SCT250 FM012300 35008KT P6SM SCT250 FM020700 VRB02KT P6SM SCT250
KPDX 
18nm E 
011720Z 0118/0218 31005KT P6SM SCT250 FM012200 32009KT P6SM SCT250 FM020300 33004KT P6SM SCT250
NOTAMs
Click for the latest NOTAMs
NOTAMs are issued by the DoD/FAA and will open in a separate window not controlled by AirNav.

 

 
 

Would you like to see your business listed on this page?

 If your business provides an interesting product or service to pilots, flight crews, aircraft, or users of the Olinger Airpark, you should consider listing it here.  To start the listing process, click on the button below
 
Add a business
 

Other Pages about Olinger Airpark

Update a link
 
Copyright © AirNav, LLC. All rights reserved. Privacy Policy  Contact